Miscellaneous Local Product
Issued by NWS North Platte, NE

Home | Current Version | Previous Version | Text Only | Print | Product List | Glossary On
Versions: 1 2 3 4 5 6 7 8 9 10 11 12 13 14 15 16 17 18 19 20 21 22 23 24 25 26 27 28 29 30 31 32 33 34 35 36 37 38 39 40 41 42 43 44 45 46 47 48 49 50
000
AXUS43 KLBF 271310
MISLBF


WESTERN AND NORTH CENTRAL NEBRASKA HOURLY WEATHER ROUNDUP
NATIONAL WEATHER SERVICE NORTH PLATTE NE
800 AM CDT MON MAR 27 2017

NOTE: "FAIR" INDICATES FEW OR NO CLOUDS BELOW 12,000 FEET WITH NO
SIGNIFICANT WEATHER AND/OR OBSTRUCTIONS TO VISIBILITY.

NOTE: STATIONS NOT REPORTING VARIABLES SUCH AS SKY/WEATHER OR
PRESSURE ARE PROVIDED BY RAWS AND APRS NETWORKS AND ARE NOT UNDER
NATIONAL WEATHER SERVICE QUALITY CONTROL.

...OBSERVATIONS IN AND NEAR THE EASTERN PANHANDLE OF NEBRASKA...

CITY           SKY/WX    TMP DP  RH WIND       PRES   REMARKS
PINE RIDGE     PTCLDY    31  31 100 CALM      29.90S FOG
CHADRON        FOG       27  25  92 CALM      29.89F VSB 1/4
ALLIANCE       FOG       23  22  96 CALM      29.90S VSB 1/2
SIDNEY         CLEAR     24  21  88 W7        29.92S WCI  16
$$

...OBSERVATIONS IN NORTHERN NEBRASKA AND FAR SOUTHERN SOUTH DAKOTA...

CITY           SKY/WX    TMP DP  RH WIND       PRES   REMARKS
WINNER         MIX PCPN  29  27  92 CALM      29.95R FOG
VALENTINE      FOG       33  31  92 CALM      29.95R VSB 1/4
THEDFORD       FOG       39  39  99 CALM      29.95R VSB<1/4
AINSWORTH      MOCLDY    35  35 100 N3        29.95R
O`NEILL        CLOUDY    38  37  98 CALM      29.96S
ORD            CLOUDY    42  39  89 CALM      29.95R
BROKEN BOW     CLOUDY    42  32  67 SE3       29.94S
VALENTINE NWR    N/A     38  38 100 CALM        N/A
HALSEY           N/A     36  36 100 CALM        N/A
BUTTE            N/A     34  33  96 CALM        N/A
CHAMBERS         N/A     41  37  87 CALM        N/A
EWING            N/A     41  38  89 CALM        N/A
$$

...OBSERVATIONS IN SOUTHWEST NEBRASKA AND FAR NORTHEAST COLORADO...

CITY           SKY/WX    TMP DP  RH WIND       PRES   REMARKS
WRAY           FAIR     N/A N/A N/A W6        29.94F
HOLYOKE        FAIR      34  32  93 W7        29.94S WCI  28
IMPERIAL       CLEAR     34  31  88 W5        29.94R WCI  30
OGALLALA       CLEAR     32  31  96 CALM      29.93S
NORTH PLATTE   FOG       36  34  92 E3        29.94R VSB<1/4
MCCOOK         CLEAR     31  31 100 CALM      29.95R FOG
LEXINGTON      FOG       40  39  95 S3        29.96R VSB<1/4
STAPLETON        N/A     32  32  99 CALM        N/A
GOTHENBURG       N/A     33  31  93 CALM        N/A
CALLAWAY         N/A     35  34  97 SE3         N/A
$$

...OBSERVATIONS IN CENTRAL LINCOLN COUNTY AREA...

CITY           SKY/WX    TMP DP  RH WIND       PRES   REMARKS
N.P. AIRPORT   FOG       36  34  92 E3        29.94R VSB<1/4
N.P. DOWNTOWN    N/A     35  34  97 CALM        N/A
N.P. SOUTHEAST   N/A     35  34  95 CALM        N/A
N.P. HILLCREST   N/A     34  33  96 CALM        N/A
$$

...SOME OBSERVATIONS FROM AROUND THE REGION...

CITY           SKY/WX    TMP DP  RH WIND       PRES   REMARKS
DENVER         PTCLDY    34  30  85 S8        29.92S WCI  27
LIMON          CLEAR     28  28 100 W7        29.96R WCI  21
ASPEN          CLOUDY    32  20  61 SW6       29.97F WCI  26
LARAMIE        CLOUDY    27  22  81 S5        29.91F WCI  22
CASPER         CLEAR     34  26  72 SW10      29.85R WCI  26
CHEYENNE       CLOUDY    31  28  89 SW6       29.92S WCI  25
SCOTTSBLUFF    FOG       27  25  92 E5        29.91S VSB 1/4 WCI  22
GRAND ISLAND   CLOUDY    42  42 100 N5        29.97R FOG
OMAHA          CLOUDY    45  38  76 N5        29.95R
SIOUX FALLS    CLOUDY    41  39  93 CALM      29.97R
PIERRE         FOG       35  35 100 CALM      29.93R VSB 1/4
RAPID CITY     FOG       24  23  96 CALM      29.88S VSB 1/2
BISMARCK       CLEAR     32  30  92 CALM      29.93R
KANSAS CITY    LGT RAIN  46  45  96 N10       29.89R FOG
HILL CITY      CLEAR     32  32 100 W5        29.96R FOG     WCI  27
WICHITA        CLOUDY    48  46  93 N9        29.92R
DODGE CITY     CLEAR     32  31  96 N6        29.97R FOG     WCI  26
OKLAHOMA CITY  CLOUDY    52  47  83 N21       29.90R
DALLAS         PTCLDY    59  51  75 NW13      29.86R
AMARILLO       CLEAR     36  35  96 NW7       29.99R WCI  30
$$




USA.gov is the U.S. government's official web portal to all federal, state and local government web resources and services.